Year,Month,Day,Hour,Minute,Value (Times are PST for temperature in C)
2008,07,19,00,00,12.40
2008,07,19,00,01,12.30
2008,07,19,00,02,12.30
2008,07,19,00,03,12.30
2008,07,19,00,04,12.30
2008,07,19,00,05,12.30
2008,07,19,00,06,12.30
2008,07,19,00,07,12.30
2008,07,19,00,08,12.30
2008,07,19,00,09,12.30
2008,07,19,00,10,12.30
2008,07,19,00,11,12.30
2008,07,19,00,12,12.30
2008,07,19,00,13,12.30
2008,07,19,00,14,12.30
2008,07,19,00,15,12.30
2008,07,19,00,16,12.30
2008,07,19,00,17,12.20
2008,07,19,00,18,12.20
2008,07,19,00,19,12.20
2008,07,19,00,20,12.20
2008,07,19,00,21,12.20
2008,07,19,00,22,12.20
2008,07,19,00,23,12.20
2008,07,19,00,24,12.20
2008,07,19,00,25,12.20
2008,07,19,00,26,12.20
2008,07,19,00,27,12.20
2008,07,19,00,28,12.20
2008,07,19,00,29,12.20
2008,07,19,00,30,12.20
2008,07,19,00,31,12.20
2008,07,19,00,32,12.20
2008,07,19,00,33,12.20
2008,07,19,00,34,12.20
2008,07,19,00,35,12.20
2008,07,19,00,36,12.20
2008,07,19,00,37,12.20
2008,07,19,00,38,12.20
2008,07,19,00,39,12.20
2008,07,19,00,40,12.20
2008,07,19,00,41,12.30
2008,07,19,00,42,12.30
2008,07,19,00,43,12.30
2008,07,19,00,44,12.30
2008,07,19,00,45,12.30
2008,07,19,00,46,12.30
2008,07,19,00,47,12.30
2008,07,19,00,48,12.30
2008,07,19,00,49,12.20
2008,07,19,00,50,12.20
2008,07,19,00,51,12.20
2008,07,19,00,52,12.20
2008,07,19,00,53,12.20
2008,07,19,00,54,12.20
2008,07,19,00,55,12.20
2008,07,19,00,56,12.20
2008,07,19,00,57,12.20
2008,07,19,00,58,12.10
2008,07,19,00,59,12.10
2008,07,19,01,00,12.10
2008,07,19,01,01,12.10
2008,07,19,01,02,12.10
2008,07,19,01,03,12.10
2008,07,19,01,04,12.10
2008,07,19,01,05,12.10
2008,07,19,01,06,12.00
2008,07,19,01,07,12.00
2008,07,19,01,08,12.00
2008,07,19,01,09,12.00
2008,07,19,01,10,12.00
2008,07,19,01,11,12.00
2008,07,19,01,12,12.00
2008,07,19,01,13,12.00
2008,07,19,01,14,12.00
2008,07,19,01,15,12.00
2008,07,19,01,16,12.00
2008,07,19,01,17,11.90
2008,07,19,01,18,11.90
2008,07,19,01,19,11.90
2008,07,19,01,20,11.90
2008,07,19,01,21,11.90
2008,07,19,01,22,11.90
2008,07,19,01,23,11.90
2008,07,19,01,24,11.90
2008,07,19,01,25,11.80
2008,07,19,01,26,11.80
2008,07,19,01,27,11.80
2008,07,19,01,28,11.80
2008,07,19,01,29,11.80
2008,07,19,01,30,11.80
2008,07,19,01,31,11.80
2008,07,19,01,32,11.80
2008,07,19,01,33,11.80
2008,07,19,01,34,11.80
2008,07,19,01,35,11.80
2008,07,19,01,36,11.80
2008,07,19,01,37,11.70
2008,07,19,01,38,11.70
2008,07,19,01,39,11.70
2008,07,19,01,40,11.70
2008,07,19,01,41,11.70
2008,07,19,01,42,11.60
2008,07,19,01,43,11.60
2008,07,19,01,44,11.60
2008,07,19,01,45,11.60
2008,07,19,01,46,11.60
2008,07,19,01,47,11.60
2008,07,19,01,48,11.60
2008,07,19,01,49,11.60
2008,07,19,01,50,11.60
2008,07,19,01,51,11.60
2008,07,19,01,52,11.50
2008,07,19,01,53,11.40
2008,07,19,01,54,11.40
2008,07,19,01,55,11.40
2008,07,19,01,56,11.40
2008,07,19,01,57,11.40
2008,07,19,01,58,11.40
2008,07,19,01,59,11.40
2008,07,19,02,00,11.40
2008,07,19,02,01,11.40
2008,07,19,02,02,11.30
2008,07,19,02,03,11.30
2008,07,19,02,04,11.30
2008,07,19,02,05,11.30
2008,07,19,02,06,11.30
2008,07,19,02,07,11.30
2008,07,19,02,08,11.30
2008,07,19,02,09,11.20
2008,07,19,02,10,11.20
2008,07,19,02,11,11.20
2008,07,19,02,12,11.20
2008,07,19,02,13,11.20
2008,07,19,02,14,11.20
2008,07,19,02,15,11.20
2008,07,19,02,16,11.10
2008,07,19,02,17,11.10
2008,07,19,02,18,11.10
2008,07,19,02,19,11.10
2008,07,19,02,20,11.10
2008,07,19,02,21,11.10
2008,07,19,02,22,11.10
2008,07,19,02,23,11.10
2008,07,19,02,24,11.10
2008,07,19,02,25,11.10
2008,07,19,02,26,11.10
2008,07,19,02,27,11.10
2008,07,19,02,28,11.00
2008,07,19,02,29,10.90
2008,07,19,02,30,10.90
2008,07,19,02,31,10.90
2008,07,19,02,32,10.90
2008,07,19,02,33,10.90
2008,07,19,02,34,10.90
2008,07,19,02,35,10.90
2008,07,19,02,36,10.90
2008,07,19,02,37,10.90
2008,07,19,02,38,10.90
2008,07,19,02,39,10.90
2008,07,19,02,40,10.90
2008,07,19,02,41,10.90
2008,07,19,02,42,10.90
2008,07,19,02,43,10.90
2008,07,19,02,44,10.90
2008,07,19,02,45,10.90
2008,07,19,02,46,10.90
2008,07,19,02,47,10.90
2008,07,19,02,48,10.90
2008,07,19,02,49,10.90
2008,07,19,02,50,10.80
2008,07,19,02,51,10.80
2008,07,19,02,52,10.80
2008,07,19,02,53,10.80
2008,07,19,02,54,10.80
2008,07,19,02,55,10.80
2008,07,19,02,56,10.80
2008,07,19,02,57,10.80
2008,07,19,02,58,10.80
2008,07,19,02,59,10.80
2008,07,19,03,00,10.80
2008,07,19,03,01,10.80
2008,07,19,03,02,10.80
2008,07,19,03,03,10.80
2008,07,19,03,04,10.80
2008,07,19,03,05,10.70
2008,07,19,03,06,10.70
2008,07,19,03,07,10.70
2008,07,19,03,08,10.70
2008,07,19,03,09,10.70
2008,07,19,03,10,10.70
2008,07,19,03,11,10.70
2008,07,19,03,12,10.70
2008,07,19,03,13,10.70
2008,07,19,03,14,10.70
2008,07,19,03,15,10.70
2008,07,19,03,16,10.70
2008,07,19,03,17,10.60
2008,07,19,03,18,10.60
2008,07,19,03,19,10.60
2008,07,19,03,20,10.60
2008,07,19,03,21,10.60
2008,07,19,03,22,10.60
2008,07,19,03,23,10.60
2008,07,19,03,24,10.60
2008,07,19,03,25,10.60
2008,07,19,03,26,10.60
2008,07,19,03,27,10.60
2008,07,19,03,28,10.60
2008,07,19,03,29,10.60
2008,07,19,03,30,10.60
2008,07,19,03,31,10.60
2008,07,19,03,32,10.60
2008,07,19,03,33,10.60
2008,07,19,03,34,10.60
2008,07,19,03,35,10.60
2008,07,19,03,36,10.60
2008,07,19,03,37,10.60
2008,07,19,03,38,10.60
2008,07,19,03,39,10.40
2008,07,19,03,40,10.40
2008,07,19,03,41,10.40
2008,07,19,03,42,10.40
2008,07,19,03,43,10.40
2008,07,19,03,44,10.40
2008,07,19,03,45,10.40
2008,07,19,03,46,10.40
2008,07,19,03,47,10.40
2008,07,19,03,48,10.40
2008,07,19,03,49,10.40
2008,07,19,03,50,10.40
2008,07,19,03,51,10.40
2008,07,19,03,52,10.40
2008,07,19,03,53,10.40
2008,07,19,03,54,10.40
2008,07,19,03,55,10.40
2008,07,19,03,56,10.40
2008,07,19,03,57,10.40
2008,07,19,03,58,10.40
2008,07,19,03,59,10.40
2008,07,19,04,00,10.40
2008,07,19,04,01,10.40
2008,07,19,04,02,10.40
2008,07,19,04,03,10.30
2008,07,19,04,04,10.30
2008,07,19,04,05,10.30
2008,07,19,04,06,10.30
2008,07,19,04,07,10.30
2008,07,19,04,08,10.30
2008,07,19,04,09,10.30
2008,07,19,04,10,10.30
2008,07,19,04,11,10.30
2008,07,19,04,12,10.30
2008,07,19,04,13,10.30
2008,07,19,04,14,10.30
2008,07,19,04,15,10.20
2008,07,19,04,16,10.20
2008,07,19,04,17,10.20
2008,07,19,04,18,10.20
2008,07,19,04,19,10.20
2008,07,19,04,20,10.20
2008,07,19,04,21,10.20
2008,07,19,04,22,10.20
2008,07,19,04,23,10.20
2008,07,19,04,24,10.20
2008,07,19,04,25,10.20
2008,07,19,04,26,10.20
2008,07,19,04,27,10.10
2008,07,19,04,28,10.10
2008,07,19,04,29,10.10
2008,07,19,04,30,10.10
2008,07,19,04,31,10.10
2008,07,19,04,32,10.10
2008,07,19,04,33,10.10
2008,07,19,04,34,10.10
2008,07,19,04,35,10.10
2008,07,19,04,36,10.10
2008,07,19,04,37,10.10
2008,07,19,04,38,10.10
2008,07,19,04,39,10.10
2008,07,19,04,40,10.10
2008,07,19,04,41,10.00
2008,07,19,04,42,9.90
2008,07,19,04,43,9.90
2008,07,19,04,44,9.90
2008,07,19,04,45,9.90
2008,07,19,04,46,9.90
2008,07,19,04,47,9.90
2008,07,19,04,48,9.90
2008,07,19,04,49,9.90
2008,07,19,04,50,9.90
2008,07,19,04,51,9.90
2008,07,19,04,52,9.90
2008,07,19,04,53,9.90
2008,07,19,04,54,9.90
2008,07,19,04,55,9.90
2008,07,19,04,56,9.90
2008,07,19,04,57,9.90
2008,07,19,04,58,9.90
2008,07,19,04,59,9.90
2008,07,19,05,00,9.90
2008,07,19,05,01,9.90
2008,07,19,05,02,9.90
2008,07,19,05,03,9.90
2008,07,19,05,04,9.90
2008,07,19,05,05,9.90
2008,07,19,05,06,9.90
2008,07,19,05,07,9.90
2008,07,19,05,08,9.90
2008,07,19,05,09,9.90
2008,07,19,05,10,9.90
2008,07,19,05,11,9.90
2008,07,19,05,12,9.90
2008,07,19,05,13,9.90
2008,07,19,05,14,9.90
2008,07,19,05,15,9.80
2008,07,19,05,16,9.80
2008,07,19,05,17,9.80
2008,07,19,05,18,9.80
2008,07,19,05,19,9.80
2008,07,19,05,20,9.80
2008,07,19,05,21,9.80
2008,07,19,05,22,9.80
2008,07,19,05,23,9.80
2008,07,19,05,24,9.80
2008,07,19,05,25,9.80
2008,07,19,05,26,9.70
2008,07,19,05,27,9.70
2008,07,19,05,28,9.70
2008,07,19,05,29,9.70
2008,07,19,05,30,9.70
2008,07,19,05,31,9.70
2008,07,19,05,32,9.70
2008,07,19,05,33,9.70
2008,07,19,05,34,9.70
2008,07,19,05,35,9.70
2008,07,19,05,36,9.70
2008,07,19,05,37,9.70
2008,07,19,05,38,9.70
2008,07,19,05,39,9.70
2008,07,19,05,40,9.70
2008,07,19,05,41,9.70
2008,07,19,05,42,9.70
2008,07,19,05,43,9.70
2008,07,19,05,44,9.70
2008,07,19,05,45,9.70
2008,07,19,05,46,9.70
2008,07,19,05,47,9.70
2008,07,19,05,48,9.70
2008,07,19,05,49,9.70
2008,07,19,05,50,9.70
2008,07,19,05,51,9.70
2008,07,19,05,52,9.70
2008,07,19,05,53,9.70
2008,07,19,05,54,9.70
2008,07,19,05,55,9.70
2008,07,19,05,56,9.70
2008,07,19,05,57,9.70
2008,07,19,05,58,9.70
2008,07,19,05,59,9.70
2008,07,19,06,00,9.70
2008,07,19,06,01,9.70
2008,07,19,06,02,9.70
2008,07,19,06,03,9.70
2008,07,19,06,04,9.70
2008,07,19,06,05,9.70
2008,07,19,06,06,9.70
2008,07,19,06,07,9.70
2008,07,19,06,08,9.70
2008,07,19,06,09,9.70
2008,07,19,06,10,9.70
2008,07,19,06,11,9.70
2008,07,19,06,12,9.70
2008,07,19,06,13,9.70
2008,07,19,06,14,9.70
2008,07,19,06,15,9.80
2008,07,19,06,16,9.80
2008,07,19,06,17,9.80
2008,07,19,06,18,9.80
2008,07,19,06,19,9.80
2008,07,19,06,20,9.80
2008,07,19,06,21,9.80
2008,07,19,06,22,9.80
2008,07,19,06,23,9.80
2008,07,19,06,24,9.80
2008,07,19,06,25,9.80
2008,07,19,06,26,9.80
2008,07,19,06,27,9.80
2008,07,19,06,28,9.80
2008,07,19,06,29,9.80
2008,07,19,06,30,9.80
2008,07,19,06,31,9.90
2008,07,19,06,32,9.90
2008,07,19,06,33,9.90
2008,07,19,06,34,9.90
2008,07,19,06,35,9.90
2008,07,19,06,36,9.90
2008,07,19,06,37,9.90
2008,07,19,06,38,9.90
2008,07,19,06,39,9.90
2008,07,19,06,40,9.90
2008,07,19,06,41,9.90
2008,07,19,06,42,9.90
2008,07,19,06,43,9.90
2008,07,19,06,44,9.90
2008,07,19,06,45,9.90
2008,07,19,06,46,9.90
2008,07,19,06,47,9.90
2008,07,19,06,48,9.90
2008,07,19,06,49,10.00
2008,07,19,06,50,10.10
2008,07,19,06,51,10.10
2008,07,19,06,52,10.10
2008,07,19,06,53,10.10
2008,07,19,06,54,10.10
2008,07,19,06,55,10.10
2008,07,19,06,56,10.10
2008,07,19,06,57,10.10
2008,07,19,06,58,10.10
2008,07,19,06,59,10.10
2008,07,19,07,00,10.10
2008,07,19,07,01,10.10
2008,07,19,07,02,10.10
2008,07,19,07,03,10.20
2008,07,19,07,04,10.20
2008,07,19,07,05,10.20
2008,07,19,07,06,10.20
2008,07,19,07,07,10.20
2008,07,19,07,08,10.30
2008,07,19,07,09,10.30
2008,07,19,07,10,10.30
2008,07,19,07,11,10.30
2008,07,19,07,12,10.30
2008,07,19,07,13,10.30
2008,07,19,07,14,10.30
2008,07,19,07,15,10.40
2008,07,19,07,16,10.40
2008,07,19,07,17,10.40
2008,07,19,07,18,10.40
2008,07,19,07,19,10.40
2008,07,19,07,20,10.40
2008,07,19,07,21,10.40
2008,07,19,07,22,10.40
2008,07,19,07,23,10.50
2008,07,19,07,24,10.60
2008,07,19,07,25,10.60
2008,07,19,07,26,10.60
2008,07,19,07,27,10.70
2008,07,19,07,28,10.70
2008,07,19,07,29,10.80
2008,07,19,07,30,10.80
2008,07,19,07,31,10.80
2008,07,19,07,32,10.90
2008,07,19,07,33,10.90
2008,07,19,07,34,10.90
2008,07,19,07,35,10.90
2008,07,19,07,36,10.90
2008,07,19,07,37,11.10
2008,07,19,07,38,11.10
2008,07,19,07,39,11.10
2008,07,19,07,40,11.10
2008,07,19,07,41,11.10
2008,07,19,07,42,11.20
2008,07,19,07,43,11.20
2008,07,19,07,44,11.30
2008,07,19,07,45,11.30
2008,07,19,07,46,11.40
2008,07,19,07,47,11.40
2008,07,19,07,48,11.50
2008,07,19,07,49,11.60
2008,07,19,07,50,11.60
2008,07,19,07,51,11.60
2008,07,19,07,52,11.70
2008,07,19,07,53,11.80
2008,07,19,07,54,11.80
2008,07,19,07,55,11.80
2008,07,19,07,56,11.80
2008,07,19,07,57,11.90
2008,07,19,07,58,11.90
2008,07,19,07,59,12.00
2008,07,19,08,00,12.00
2008,07,19,08,01,12.00
2008,07,19,08,02,12.10
2008,07,19,08,03,12.20
2008,07,19,08,04,12.20
2008,07,19,08,05,12.20
2008,07,19,08,06,12.30
2008,07,19,08,07,12.40
2008,07,19,08,08,12.40
2008,07,19,08,09,12.50
2008,07,19,08,10,12.50
2008,07,19,08,11,12.50
2008,07,19,08,12,12.60
2008,07,19,08,13,12.60
2008,07,19,08,14,12.60
2008,07,19,08,15,12.70
2008,07,19,08,16,12.70
2008,07,19,08,17,12.80
2008,07,19,08,18,12.80
2008,07,19,08,19,12.80
2008,07,19,08,20,12.90
2008,07,19,08,21,13.00
2008,07,19,08,22,13.10
2008,07,19,08,23,13.10
2008,07,19,08,24,13.20
2008,07,19,08,25,13.30
2008,07,19,08,26,13.40
2008,07,19,08,27,13.50
2008,07,19,08,28,13.50
2008,07,19,08,29,13.60
2008,07,19,08,30,13.70
2008,07,19,08,31,13.70
2008,07,19,08,32,13.70
2008,07,19,08,33,13.80
2008,07,19,08,34,13.80
2008,07,19,08,35,13.80
2008,07,19,08,36,13.90
2008,07,19,08,37,13.90
2008,07,19,08,38,13.90
2008,07,19,08,39,13.90
2008,07,19,08,40,13.90
2008,07,19,08,41,14.00
2008,07,19,08,42,14.00
2008,07,19,08,43,14.00
2008,07,19,08,44,14.10
2008,07,19,08,45,14.10
2008,07,19,08,46,14.20
2008,07,19,08,47,14.20
2008,07,19,08,48,14.20
2008,07,19,08,49,14.20
2008,07,19,08,50,14.20
2008,07,19,08,51,14.20
2008,07,19,08,52,14.20
2008,07,19,08,53,14.20
2008,07,19,08,54,14.20
2008,07,19,08,55,14.20
2008,07,19,08,56,14.30
2008,07,19,08,57,14.30
2008,07,19,08,58,14.40
2008,07,19,08,59,14.40
2008,07,19,09,00,14.40
2008,07,19,09,01,14.40
2008,07,19,09,02,14.40
2008,07,19,09,03,14.40
2008,07,19,09,04,14.40
2008,07,19,09,05,14.40
2008,07,19,09,06,14.40
2008,07,19,09,07,14.40
2008,07,19,09,08,14.50
2008,07,19,09,09,14.50
2008,07,19,09,10,14.50
2008,07,19,09,11,14.50
2008,07,19,09,12,14.50
2008,07,19,09,13,14.50
2008,07,19,09,14,14.50
2008,07,19,09,15,14.50
2008,07,19,09,16,14.50
2008,07,19,09,17,14.60
2008,07,19,09,18,14.60
2008,07,19,09,19,14.70
2008,07,19,09,20,14.70
2008,07,19,09,21,14.70
2008,07,19,09,22,14.80
2008,07,19,09,23,14.80
2008,07,19,09,24,14.80
2008,07,19,09,25,14.80
2008,07,19,09,26,14.80
2008,07,19,09,27,14.80
2008,07,19,09,28,14.80
2008,07,19,09,29,14.80
2008,07,19,09,30,14.80
2008,07,19,09,31,14.80
2008,07,19,09,32,14.90
2008,07,19,09,33,14.90
2008,07,19,09,34,15.00
2008,07,19,09,35,15.00
2008,07,19,09,36,15.10
2008,07,19,09,37,15.10
2008,07,19,09,38,15.20
2008,07,19,09,39,15.20
2008,07,19,09,40,15.30
2008,07,19,09,41,15.30
2008,07,19,09,42,15.30
2008,07,19,09,43,15.40
2008,07,19,09,44,15.60
2008,07,19,09,45,15.70
2008,07,19,09,46,15.80
2008,07,19,09,47,15.80
2008,07,19,09,48,15.80
2008,07,19,09,49,15.80
2008,07,19,09,50,15.90
2008,07,19,09,51,15.90
2008,07,19,09,52,16.00
2008,07,19,09,53,16.10
2008,07,19,09,54,16.10
2008,07,19,09,55,16.10
2008,07,19,09,56,16.10
2008,07,19,09,57,16.10
2008,07,19,09,58,16.10
2008,07,19,09,59,16.10
2008,07,19,10,00,16.10
2008,07,19,10,01,16.10
2008,07,19,10,02,16.10
2008,07,19,10,03,16.10
2008,07,19,10,04,16.10
2008,07,19,10,05,16.10
2008,07,19,10,06,16.10
2008,07,19,10,07,16.20
2008,07,19,10,08,16.30
2008,07,19,10,09,16.40
2008,07,19,10,10,16.40
2008,07,19,10,11,16.50
2008,07,19,10,12,16.60
2008,07,19,10,13,16.60
2008,07,19,10,14,16.60
2008,07,19,10,15,16.60
2008,07,19,10,16,16.50
2008,07,19,10,17,16.40
2008,07,19,10,18,16.40
2008,07,19,10,19,16.40
2008,07,19,10,20,16.40
2008,07,19,10,21,16.40
2008,07,19,10,22,16.40
2008,07,19,10,23,16.50
2008,07,19,10,24,16.60
2008,07,19,10,25,16.70
2008,07,19,10,26,16.70
2008,07,19,10,27,16.80
2008,07,19,10,28,16.80
2008,07,19,10,29,16.80
2008,07,19,10,30,16.70
2008,07,19,10,31,16.70
2008,07,19,10,32,16.70
2008,07,19,10,33,16.60
2008,07,19,10,34,16.60
2008,07,19,10,35,16.60
2008,07,19,10,36,16.60
2008,07,19,10,37,16.50
2008,07,19,10,38,16.40
2008,07,19,10,39,16.40
2008,07,19,10,40,16.40
2008,07,19,10,41,16.40
2008,07,19,10,42,16.40
2008,07,19,10,43,16.40
2008,07,19,10,44,16.40
2008,07,19,10,45,16.40
2008,07,19,10,46,16.40
2008,07,19,10,47,16.40
2008,07,19,10,48,16.40
2008,07,19,10,49,16.40
2008,07,19,10,50,16.40
2008,07,19,10,51,16.40
2008,07,19,10,52,16.40
2008,07,19,10,53,16.40
2008,07,19,10,54,16.40
2008,07,19,10,55,16.40
2008,07,19,10,56,16.40
2008,07,19,10,57,16.40
2008,07,19,10,58,16.40
2008,07,19,10,59,16.50
2008,07,19,11,00,16.60
2008,07,19,11,01,16.60
2008,07,19,11,02,16.60
2008,07,19,11,03,16.60
2008,07,19,11,04,16.70
2008,07,19,11,05,16.70
2008,07,19,11,06,16.70
2008,07,19,11,07,16.80
2008,07,19,11,08,16.80
2008,07,19,11,09,16.80
2008,07,19,11,10,16.80
2008,07,19,11,11,16.80
2008,07,19,11,12,16.80
2008,07,19,11,13,16.80
2008,07,19,11,14,16.80
2008,07,19,11,15,16.80
2008,07,19,11,16,16.80
2008,07,19,11,17,16.80
2008,07,19,11,18,16.80
2008,07,19,11,19,16.80
2008,07,19,11,20,16.80
2008,07,19,11,21,16.80
2008,07,19,11,22,16.80
2008,07,19,11,23,16.90
2008,07,19,11,24,16.90
2008,07,19,11,25,17.00
2008,07,19,11,26,17.10
2008,07,19,11,27,17.20
2008,07,19,11,28,17.20
2008,07,19,11,29,17.30
2008,07,19,11,30,17.30
2008,07,19,11,31,17.30
2008,07,19,11,32,17.30
2008,07,19,11,33,17.30
2008,07,19,11,34,17.30
2008,07,19,11,35,17.30
2008,07,19,11,36,17.30
2008,07,19,11,37,17.30
2008,07,19,11,38,17.30
2008,07,19,11,39,17.40
2008,07,19,11,40,17.40
2008,07,19,11,41,17.30
2008,07,19,11,42,17.30
2008,07,19,11,43,17.20
2008,07,19,11,44,17.00
2008,07,19,11,45,16.90
2008,07,19,11,46,16.90
2008,07,19,11,47,16.80
2008,07,19,11,48,16.80
2008,07,19,11,49,16.80
2008,07,19,11,50,16.70
2008,07,19,11,51,16.70
2008,07,19,11,52,16.70
2008,07,19,11,53,16.70
2008,07,19,11,54,16.70
2008,07,19,11,55,16.70
2008,07,19,11,56,16.70
2008,07,19,11,57,16.70
2008,07,19,11,58,16.70
2008,07,19,11,59,16.70
2008,07,19,12,00,16.70
2008,07,19,12,01,16.70
2008,07,19,12,02,16.70
2008,07,19,12,03,16.70
2008,07,19,12,04,16.70
2008,07,19,12,05,16.70
2008,07,19,12,06,16.70
2008,07,19,12,07,16.70
2008,07,19,12,08,16.80
2008,07,19,12,09,16.80
2008,07,19,12,10,16.90
2008,07,19,12,11,16.90
2008,07,19,12,12,17.00
2008,07,19,12,13,17.00
2008,07,19,12,14,17.00
2008,07,19,12,15,17.00
2008,07,19,12,16,17.00
2008,07,19,12,17,17.00
2008,07,19,12,18,17.00
2008,07,19,12,19,17.00
2008,07,19,12,20,17.00
2008,07,19,12,21,16.90
2008,07,19,12,22,16.90
2008,07,19,12,23,16.90
2008,07,19,12,24,16.90
2008,07,19,12,25,16.90
2008,07,19,12,26,16.90
2008,07,19,12,27,16.90
2008,07,19,12,28,17.00
2008,07,19,12,29,17.00
2008,07,19,12,30,17.10
2008,07,19,12,31,17.20
2008,07,19,12,32,17.20
2008,07,19,12,33,17.30
2008,07,19,12,34,17.30
2008,07,19,12,35,17.30
2008,07,19,12,36,17.30
2008,07,19,12,37,17.30
2008,07,19,12,38,17.40
2008,07,19,12,39,17.40
2008,07,19,12,40,17.40
2008,07,19,12,41,17.40
2008,07,19,12,42,17.40
2008,07,19,12,43,17.50
2008,07,19,12,44,17.60
2008,07,19,12,45,17.60
2008,07,19,12,46,17.70
2008,07,19,12,47,17.70
2008,07,19,12,48,17.70
2008,07,19,12,49,17.70
2008,07,19,12,50,17.80
2008,07,19,12,51,17.80
2008,07,19,12,52,17.80
2008,07,19,12,53,17.80
2008,07,19,12,54,17.90
2008,07,19,12,55,17.90
2008,07,19,12,56,17.90
2008,07,19,12,57,17.90
2008,07,19,12,58,17.90
2008,07,19,12,59,17.90
2008,07,19,13,00,17.90
2008,07,19,13,01,17.90
2008,07,19,13,02,17.90
2008,07,19,13,03,17.90
2008,07,19,13,04,17.90
2008,07,19,13,05,17.90
2008,07,19,13,06,17.90
2008,07,19,13,07,17.90
2008,07,19,13,08,17.90
2008,07,19,13,09,17.90
2008,07,19,13,10,17.90
2008,07,19,13,11,17.80
2008,07,19,13,12,17.70
2008,07,19,13,13,17.70
2008,07,19,13,14,17.70
2008,07,19,13,15,17.60
2008,07,19,13,16,17.60
2008,07,19,13,17,17.60
2008,07,19,13,18,17.60
2008,07,19,13,19,17.60
2008,07,19,13,20,17.70
2008,07,19,13,21,17.80
2008,07,19,13,22,17.80
2008,07,19,13,23,17.80
2008,07,19,13,24,17.90
2008,07,19,13,25,17.90
2008,07,19,13,26,17.90
2008,07,19,13,27,17.90
2008,07,19,13,28,17.90
2008,07,19,13,29,17.90
2008,07,19,13,30,17.90
2008,07,19,13,31,17.90
2008,07,19,13,32,17.90
2008,07,19,13,33,17.80
2008,07,19,13,34,17.80
2008,07,19,13,35,17.70
2008,07,19,13,36,17.70
2008,07,19,13,37,17.70
2008,07,19,13,38,17.70
2008,07,19,13,39,17.80
2008,07,19,13,40,17.80
2008,07,19,13,41,17.80
2008,07,19,13,42,17.80
2008,07,19,13,43,17.90
2008,07,19,13,44,17.90
2008,07,19,13,45,17.80
2008,07,19,13,46,17.80
2008,07,19,13,47,17.80
2008,07,19,13,48,17.90
2008,07,19,13,49,17.90
2008,07,19,13,50,17.90
2008,07,19,13,51,17.90
2008,07,19,13,52,17.90
2008,07,19,13,53,17.90
2008,07,19,13,54,17.90
2008,07,19,13,55,17.90
2008,07,19,13,56,17.90
2008,07,19,13,57,17.90
2008,07,19,13,58,17.90
2008,07,19,13,59,18.10
2008,07,19,14,00,18.10
2008,07,19,14,01,18.10
2008,07,19,14,02,18.10
2008,07,19,14,03,18.10
2008,07,19,14,04,18.10
2008,07,19,14,05,18.20
2008,07,19,14,06,18.20
2008,07,19,14,07,18.20
2008,07,19,14,08,18.20
2008,07,19,14,09,18.20
2008,07,19,14,10,18.20
2008,07,19,14,11,18.30
2008,07,19,14,12,18.30
2008,07,19,14,13,18.40
2008,07,19,14,14,18.40
2008,07,19,14,15,18.40
2008,07,19,14,16,18.40
2008,07,19,14,17,18.50
2008,07,19,14,18,18.50
2008,07,19,14,19,18.60
2008,07,19,14,20,18.60
2008,07,19,14,21,18.60
2008,07,19,14,22,18.60
2008,07,19,14,23,18.60
2008,07,19,14,24,18.60
2008,07,19,14,25,18.60
2008,07,19,14,26,18.60
2008,07,19,14,27,18.60
2008,07,19,14,28,18.60
2008,07,19,14,29,18.60
2008,07,19,14,30,18.70
2008,07,19,14,31,18.70
2008,07,19,14,32,18.80
2008,07,19,14,33,18.80
2008,07,19,14,34,18.80
2008,07,19,14,35,18.90
2008,07,19,14,36,18.80
2008,07,19,14,37,18.80
2008,07,19,14,38,18.70
2008,07,19,14,39,18.70
2008,07,19,14,40,18.70
2008,07,19,14,41,18.70
2008,07,19,14,42,18.70
2008,07,19,14,43,18.60
2008,07,19,14,44,18.60
2008,07,19,14,45,18.60
2008,07,19,14,46,18.60
2008,07,19,14,47,18.70
2008,07,19,14,48,18.90
2008,07,19,14,49,18.90
2008,07,19,14,50,18.90
2008,07,19,14,51,18.90
2008,07,19,14,52,18.90
2008,07,19,14,53,18.80
2008,07,19,14,54,18.80
2008,07,19,14,55,18.80
2008,07,19,14,56,18.80
2008,07,19,14,57,18.90
2008,07,19,14,58,18.90
2008,07,19,14,59,18.90
2008,07,19,15,00,18.90
2008,07,19,15,01,19.10
2008,07,19,15,02,19.10
2008,07,19,15,03,19.10
2008,07,19,15,04,19.10
2008,07,19,15,05,19.20
2008,07,19,15,06,19.20
2008,07,19,15,07,19.20
2008,07,19,15,08,19.20
2008,07,19,15,09,19.30
2008,07,19,15,10,19.30
2008,07,19,15,11,19.20
2008,07,19,15,12,19.20
2008,07,19,15,13,19.30
2008,07,19,15,14,19.30
2008,07,19,15,15,19.20
2008,07,19,15,16,19.10
2008,07,19,15,17,19.20
2008,07,19,15,18,19.30
2008,07,19,15,19,19.30
2008,07,19,15,20,19.50
2008,07,19,15,21,19.70
2008,07,19,15,22,19.90
2008,07,19,15,23,19.90
2008,07,19,15,24,20.00
2008,07,19,15,25,20.10
2008,07,19,15,26,20.10
2008,07,19,15,27,20.10
2008,07,19,15,28,20.10
2008,07,19,15,29,20.10
2008,07,19,15,30,20.10
2008,07,19,15,31,20.00
2008,07,19,15,32,19.90
2008,07,19,15,33,19.80
2008,07,19,15,34,19.70
2008,07,19,15,35,19.60
2008,07,19,15,36,19.50
2008,07,19,15,37,19.40
2008,07,19,15,38,19.40
2008,07,19,15,39,19.40
2008,07,19,15,40,19.40
2008,07,19,15,41,19.50
2008,07,19,15,42,19.50
2008,07,19,15,43,19.50
2008,07,19,15,44,19.50
2008,07,19,15,45,19.40
2008,07,19,15,46,19.30
2008,07,19,15,47,19.10
2008,07,19,15,48,19.10
2008,07,19,15,49,19.10
2008,07,19,15,50,19.10
2008,07,19,15,51,19.10
2008,07,19,15,52,19.10
2008,07,19,15,53,19.10
2008,07,19,15,54,19.20
2008,07,19,15,55,19.30
2008,07,19,15,56,19.30
2008,07,19,15,57,19.40
2008,07,19,15,58,19.50
2008,07,19,15,59,19.50
2008,07,19,16,00,19.60
2008,07,19,16,01,19.60
2008,07,19,16,02,19.70
2008,07,19,16,03,19.70
2008,07,19,16,04,19.70
2008,07,19,16,05,19.70
2008,07,19,16,06,19.70
2008,07,19,16,07,19.60
2008,07,19,16,08,19.60
2008,07,19,16,09,19.70
2008,07,19,16,10,19.80
2008,07,19,16,11,19.90
2008,07,19,16,12,19.90
2008,07,19,16,13,19.90
2008,07,19,16,14,19.90
2008,07,19,16,15,19.90
2008,07,19,16,16,19.90
2008,07,19,16,17,19.80
2008,07,19,16,18,19.80
2008,07,19,16,19,19.70
2008,07,19,16,20,19.70
2008,07,19,16,21,19.70
2008,07,19,16,22,19.70
2008,07,19,16,23,19.70
2008,07,19,16,24,19.70
2008,07,19,16,25,19.80
2008,07,19,16,26,19.90
2008,07,19,16,27,20.00
2008,07,19,16,28,20.20
2008,07,19,16,29,20.30
2008,07,19,16,30,20.30
2008,07,19,16,31,20.20
2008,07,19,16,32,20.30
2008,07,19,16,33,20.20
2008,07,19,16,34,20.20
2008,07,19,16,35,20.20
2008,07,19,16,36,20.20
2008,07,19,16,37,20.20
2008,07,19,16,38,20.20
2008,07,19,16,39,20.20
2008,07,19,16,40,20.30
2008,07,19,16,41,20.30
2008,07,19,16,42,20.50
2008,07,19,16,43,20.60
2008,07,19,16,44,20.60
2008,07,19,16,45,20.60
2008,07,19,16,46,20.60
2008,07,19,16,47,20.70
2008,07,19,16,48,20.70
2008,07,19,16,49,20.80
2008,07,19,16,50,20.80
2008,07,19,16,51,20.70
2008,07,19,16,52,20.70
2008,07,19,16,53,20.70
2008,07,19,16,54,20.60
2008,07,19,16,55,20.60
2008,07,19,16,56,20.60
2008,07,19,16,57,20.50
2008,07,19,16,58,20.50
2008,07,19,16,59,20.30
2008,07,19,17,00,20.30
2008,07,19,17,01,20.30
2008,07,19,17,02,20.30
2008,07,19,17,03,20.30
2008,07,19,17,04,20.30
2008,07,19,17,05,20.30
2008,07,19,17,06,20.30
2008,07,19,17,07,20.30
2008,07,19,17,08,20.30
2008,07,19,17,09,20.30
2008,07,19,17,10,20.20
2008,07,19,17,11,20.30
2008,07,19,17,12,20.30
2008,07,19,17,13,20.30
2008,07,19,17,14,20.40
2008,07,19,17,15,20.40
2008,07,19,17,16,20.40
2008,07,19,17,17,20.40
2008,07,19,17,18,20.50
2008,07,19,17,19,20.50
2008,07,19,17,20,20.50
2008,07,19,17,21,20.50
2008,07,19,17,22,20.50
2008,07,19,17,23,20.50
2008,07,19,17,24,20.50